Time,TemperatureF,DewpointF,PressureIn,WindDirection,WindDirectionDegrees,WindSpeedMPH,WindSpeedGustMPH,Humidity,HourlyPrecipIn,Conditions,Clouds,dailyrainin,SolarRadiationWatts/m^2,SoftwareType,DateUTC
2013-03-02 00:01:00,43.0,43.0,-100.00,NW,316,3.0,7.0,100,0.00,,,0.01,0.000000,,2013-03-02 08:01:00,
2013-03-02 00:11:00,43.0,43.0,-100.00,NW,316,3.0,7.0,100,0.00,,,0.01,0.000000,,2013-03-02 08:11:00,
2013-03-02 00:32:00,43.0,43.0,-100.00,NW,311,4.0,9.0,100,0.00,,,0.00,0.000000,,2013-03-02 08:32:00,
2013-03-02 00:42:00,43.0,43.0,-100.00,NW,311,4.0,9.0,100,0.00,,,0.00,0.000000,,2013-03-02 08:42:00,
2013-03-02 00:52:00,43.0,43.0,-100.00,NW,311,4.0,9.0,100,0.00,,,0.00,0.000000,,2013-03-02 08:52:00,
2013-03-02 01:01:00,43.0,43.0,-100.00,NW,311,4.0,9.0,100,0.00,,,0.00,0.000000,,2013-03-02 09:01:00,
2013-03-02 01:11:00,43.0,43.0,-100.00,NW,311,4.0,9.0,100,0.00,,,0.00,0.000000,,2013-03-02 09:11:00,
2013-03-02 01:14:00,43.0,43.0,-100.00,NW,304,5.0,9.0,100,0.00,,,0.00,0.000000,,2013-03-02 09:14:00,
2013-03-02 01:32:00,43.0,43.0,-100.00,NW,304,5.0,9.0,100,0.00,,,0.00,0.000000,,2013-03-02 09:32:00,
2013-03-02 01:42:00,43.0,43.0,-100.00,NW,304,5.0,9.0,100,0.00,,,0.00,0.000000,,2013-03-02 09:42:00,
2013-03-02 01:52:00,43.0,43.0,-100.00,NW,304,5.0,9.0,100,0.00,,,0.00,0.000000,,2013-03-02 09:52:00,
2013-03-02 02:01:00,43.0,43.0,-100.00,NW,304,5.0,9.0,100,0.00,,,0.00,0.000000,,2013-03-02 10:01:00,
2013-03-02 02:32:00,42.0,42.0,-100.00,NW,305,5.0,9.0,100,0.00,,,0.00,0.000000,,2013-03-02 10:32:00,
2013-03-02 02:43:00,42.0,42.0,-100.00,NW,305,5.0,9.0,100,0.00,,,0.00,0.000000,,2013-03-02 10:43:00,
2013-03-02 02:52:00,42.0,42.0,-100.00,NW,305,5.0,9.0,100,0.00,,,0.00,0.000000,,2013-03-02 10:52:00,
2013-03-02 03:01:00,42.0,42.0,-100.00,NW,305,5.0,9.0,100,0.00,,,0.00,0.000000,,2013-03-02 11:01:00,
2013-03-02 03:11:00,42.0,42.0,-100.00,NW,305,5.0,9.0,100,0.00,,,0.00,0.000000,,2013-03-02 11:11:00,
2013-03-02 03:32:00,43.0,43.0,-100.00,NW,306,6.0,12.0,100,0.00,,,0.00,0.000000,,2013-03-02 11:32:00,
2013-03-02 03:42:00,43.0,43.0,-100.00,NW,306,6.0,12.0,100,0.00,,,0.00,0.000000,,2013-03-02 11:42:00,
2013-03-02 03:52:00,43.0,43.0,-100.00,NW,306,6.0,12.0,100,0.00,,,0.00,0.000000,,2013-03-02 11:52:00,
2013-03-02 04:02:00,43.0,43.0,-100.00,NW,306,6.0,12.0,100,0.00,,,0.00,0.000000,,2013-03-02 12:02:00,
2013-03-02 04:11:00,43.0,43.0,-100.00,NW,306,6.0,12.0,100,0.00,,,0.00,0.000000,,2013-03-02 12:11:00,
2013-03-02 04:33:00,43.0,43.0,-100.00,NW,317,5.0,13.0,100,0.00,,,0.00,0.000000,,2013-03-02 12:33:00,
2013-03-02 04:43:00,43.0,43.0,-100.00,NW,317,5.0,13.0,100,0.00,,,0.00,0.000000,,2013-03-02 12:43:00,
2013-03-02 04:53:00,43.0,43.0,-100.00,NW,317,5.0,13.0,100,0.00,,,0.00,0.000000,,2013-03-02 12:53:00,
2013-03-02 05:01:00,43.0,43.0,-100.00,NW,317,5.0,13.0,100,0.00,,,0.00,0.000000,,2013-03-02 13:01:00,
2013-03-02 05:11:00,43.0,43.0,-100.00,NW,317,5.0,13.0,100,0.00,,,0.00,0.000000,,2013-03-02 13:11:00,
2013-03-02 05:42:00,43.0,43.0,-100.00,WNW,303,4.0,11.0,100,0.00,,,0.00,0.000000,,2013-03-02 13:42:00,
2013-03-02 05:52:00,43.0,43.0,-100.00,WNW,303,4.0,11.0,100,0.00,,,0.00,0.000000,,2013-03-02 13:52:00,
2013-03-02 06:01:00,43.0,43.0,-100.00,WNW,303,4.0,11.0,100,0.00,,,0.00,0.000000,,2013-03-02 14:01:00,
2013-03-02 06:11:00,43.0,43.0,-100.00,WNW,303,4.0,11.0,100,0.00,,,0.00,0.000000,,2013-03-02 14:11:00,
2013-03-02 06:32:00,43.0,43.0,-100.00,NNW,327,2.0,6.0,100,0.00,,,0.00,0.000000,,2013-03-02 14:32:00,
2013-03-02 06:42:00,43.0,43.0,-100.00,NNW,327,2.0,6.0,100,0.00,,,0.00,0.000000,,2013-03-02 14:42:00,
2013-03-02 06:52:00,43.0,43.0,-100.00,NNW,327,2.0,6.0,100,0.00,,,0.00,0.000000,,2013-03-02 14:52:00,
2013-03-02 07:01:00,43.0,43.0,-100.00,NNW,327,2.0,6.0,100,0.00,,,0.00,0.000000,,2013-03-02 15:01:00,
2013-03-02 07:11:00,43.0,43.0,-100.00,NNW,327,2.0,6.0,100,0.00,,,0.00,0.000000,,2013-03-02 15:11:00,
2013-03-02 07:32:00,44.0,44.0,-100.00,NNW,345,2.0,5.0,100,0.00,,,0.00,4.000000,,2013-03-02 15:32:00,
2013-03-02 07:42:00,44.0,44.0,-100.00,NNW,345,2.0,5.0,100,0.00,,,0.00,4.000000,,2013-03-02 15:42:00,
2013-03-02 07:52:00,44.0,44.0,-100.00,NNW,345,2.0,5.0,100,0.00,,,0.00,4.000000,,2013-03-02 15:52:00,
2013-03-02 08:01:00,44.0,44.0,-100.00,NNW,345,2.0,5.0,100,0.00,,,0.00,4.000000,,2013-03-02 16:01:00,
2013-03-02 08:11:00,44.0,44.0,-100.00,NNW,345,2.0,5.0,100,0.00,,,0.00,4.000000,,2013-03-02 16:11:00,
2013-03-02 08:32:00,44.0,44.0,-100.00,South,178,0.0,4.0,100,0.00,,,0.00,41.000000,,2013-03-02 16:32:00,
2013-03-02 08:42:00,44.0,44.0,-100.00,South,178,0.0,4.0,100,0.00,,,0.00,41.000000,,2013-03-02 16:42:00,
2013-03-02 08:52:00,44.0,44.0,-100.00,South,178,0.0,4.0,100,0.00,,,0.00,41.000000,,2013-03-02 16:52:00,
2013-03-02 09:01:00,44.0,44.0,-100.00,South,178,0.0,4.0,100,0.00,,,0.00,41.000000,,2013-03-02 17:01:00,
2013-03-02 09:11:00,44.0,44.0,-100.00,South,178,0.0,4.0,100,0.00,,,0.00,41.000000,,2013-03-02 17:11:00,
2013-03-02 09:32:00,45.0,45.0,-100.00,NW,313,4.0,7.0,100,0.00,,,0.00,100.000000,,2013-03-02 17:32:00,
2013-03-02 09:42:00,45.0,45.0,-100.00,NW,313,4.0,7.0,100,0.00,,,0.00,100.000000,,2013-03-02 17:42:00,
2013-03-02 09:52:00,45.0,45.0,-100.00,NW,313,4.0,7.0,100,0.00,,,0.00,100.000000,,2013-03-02 17:52:00,
2013-03-02 10:01:00,45.0,45.0,-100.00,NW,313,4.0,7.0,100,0.00,,,0.00,100.000000,,2013-03-02 18:01:00,
2013-03-02 10:11:00,45.0,45.0,-100.00,NW,313,4.0,7.0,100,0.00,,,0.00,100.000000,,2013-03-02 18:11:00,
2013-03-02 10:32:00,46.0,46.0,-100.00,NW,313,5.0,10.0,100,0.00,,,0.00,168.000000,,2013-03-02 18:32:00,
2013-03-02 10:42:00,46.0,46.0,-100.00,NW,313,5.0,10.0,100,0.00,,,0.00,168.000000,,2013-03-02 18:42:00,
2013-03-02 10:52:00,46.0,46.0,-100.00,NW,313,5.0,10.0,100,0.00,,,0.00,168.000000,,2013-03-02 18:52:00,
2013-03-02 11:01:00,46.0,46.0,-100.00,NW,313,5.0,10.0,100,0.00,,,0.00,168.000000,,2013-03-02 19:01:00,
2013-03-02 11:11:00,46.0,46.0,-100.00,NW,313,5.0,10.0,100,0.00,,,0.00,168.000000,,2013-03-02 19:11:00,
2013-03-02 11:42:00,46.0,46.0,-100.00,WNW,303,7.0,14.0,100,0.00,,,0.00,217.000000,,2013-03-02 19:42:00,
2013-03-02 11:52:00,46.0,46.0,-100.00,WNW,303,7.0,14.0,100,0.00,,,0.00,217.000000,,2013-03-02 19:52:00,
2013-03-02 12:01:00,46.0,46.0,-100.00,WNW,303,7.0,14.0,100,0.00,,,0.00,217.000000,,2013-03-02 20:01:00,
2013-03-02 12:11:00,46.0,46.0,-100.00,WNW,303,7.0,14.0,100,0.00,,,0.00,217.000000,,2013-03-02 20:11:00,
2013-03-02 12:32:00,45.0,45.0,-100.00,NW,316,7.0,13.0,100,0.00,,,0.00,160.000000,,2013-03-02 20:32:00,
2013-03-02 12:42:00,45.0,45.0,-100.00,NW,316,7.0,13.0,100,0.00,,,0.00,160.000000,,2013-03-02 20:42:00,
2013-03-02 12:52:00,45.0,45.0,-100.00,NW,316,7.0,13.0,100,0.00,,,0.00,160.000000,,2013-03-02 20:52:00,
2013-03-02 13:02:00,45.0,45.0,-100.00,NW,316,7.0,13.0,100,0.00,,,0.00,160.000000,,2013-03-02 21:02:00,
2013-03-02 13:11:00,45.0,45.0,-100.00,NW,316,7.0,13.0,100,0.00,,,0.00,160.000000,,2013-03-02 21:11:00,
2013-03-02 13:32:00,46.0,46.0,-100.00,NW,323,7.0,13.0,100,0.00,,,0.00,155.000000,,2013-03-02 21:32:00,
2013-03-02 13:42:00,46.0,46.0,-100.00,NW,323,7.0,13.0,100,0.00,,,0.00,155.000000,,2013-03-02 21:42:00,
2013-03-02 13:52:00,46.0,46.0,-100.00,NW,323,7.0,13.0,100,0.00,,,0.00,155.000000,,2013-03-02 21:52:00,
2013-03-02 14:01:00,46.0,46.0,-100.00,NW,323,7.0,13.0,100,0.00,,,0.00,155.000000,,2013-03-02 22:01:00,
2013-03-02 14:11:00,46.0,46.0,-100.00,NW,323,7.0,13.0,100,0.00,,,0.00,155.000000,,2013-03-02 22:11:00,
2013-03-02 14:42:00,47.0,46.0,-100.00,NW,311,7.0,14.0,95,0.00,,,0.00,202.000000,,2013-03-02 22:42:00,
2013-03-02 14:52:00,47.0,46.0,-100.00,NW,311,7.0,14.0,95,0.00,,,0.00,202.000000,,2013-03-02 22:52:00,
2013-03-02 15:01:00,47.0,46.0,-100.00,NW,311,7.0,14.0,95,0.00,,,0.00,202.000000,,2013-03-02 23:01:00,
2013-03-02 15:11:00,47.0,46.0,-100.00,NW,311,7.0,14.0,95,0.00,,,0.00,202.000000,,2013-03-02 23:11:00,
2013-03-02 15:32:00,47.0,45.0,-100.00,NW,306,11.0,20.0,93,0.00,,,0.00,183.000000,,2013-03-02 23:32:00,
2013-03-02 15:42:00,47.0,45.0,-100.00,NW,306,11.0,20.0,93,0.00,,,0.00,183.000000,,2013-03-02 23:42:00,
2013-03-02 15:52:00,47.0,45.0,-100.00,NW,306,11.0,20.0,93,0.00,,,0.00,183.000000,,2013-03-02 23:52:00,
2013-03-02 16:02:00,47.0,45.0,-100.00,NW,306,11.0,20.0,93,0.00,,,0.00,183.000000,,2013-03-03 00:02:00,
2013-03-02 16:11:00,47.0,45.0,-100.00,NW,306,11.0,20.0,93,0.00,,,0.00,183.000000,,2013-03-03 00:11:00,
2013-03-02 16:32:00,45.0,44.0,-100.00,NW,305,10.0,21.0,96,0.00,,,0.00,148.000000,,2013-03-03 00:32:00,
2013-03-02 16:42:00,45.0,44.0,-100.00,NW,305,10.0,21.0,96,0.00,,,0.00,148.000000,,2013-03-03 00:42:00,
2013-03-02 16:52:00,45.0,44.0,-100.00,NW,305,10.0,21.0,96,0.00,,,0.00,148.000000,,2013-03-03 00:52:00,
2013-03-02 17:01:00,45.0,44.0,-100.00,NW,305,10.0,21.0,96,0.00,,,0.00,148.000000,,2013-03-03 01:01:00,
2013-03-02 17:11:00,45.0,44.0,-100.00,NW,305,10.0,21.0,96,0.00,,,0.00,148.000000,,2013-03-03 01:11:00,
2013-03-02 17:32:00,44.0,42.0,-100.00,WNW,285,14.0,21.0,93,0.00,,,0.00,76.000000,,2013-03-03 01:32:00,
2013-03-02 17:42:00,44.0,42.0,-100.00,WNW,285,14.0,21.0,93,0.00,,,0.00,76.000000,,2013-03-03 01:42:00,
2013-03-02 17:52:00,44.0,42.0,-100.00,WNW,285,14.0,21.0,93,0.00,,,0.00,76.000000,,2013-03-03 01:52:00,
2013-03-02 18:01:00,44.0,42.0,-100.00,WNW,285,14.0,21.0,93,0.00,,,0.00,76.000000,,2013-03-03 02:01:00,
2013-03-02 18:11:00,44.0,42.0,-100.00,WNW,285,14.0,21.0,93,0.00,,,0.00,76.000000,,2013-03-03 02:11:00,
2013-03-02 18:32:00,44.0,40.0,-100.00,West,265,12.0,24.0,87,0.00,,,0.00,13.000000,,2013-03-03 02:32:00,
2013-03-02 18:42:00,44.0,40.0,-100.00,West,265,12.0,24.0,87,0.00,,,0.00,13.000000,,2013-03-03 02:42:00,
2013-03-02 18:52:00,44.0,40.0,-100.00,West,265,12.0,24.0,87,0.00,,,0.00,13.000000,,2013-03-03 02:52:00,
2013-03-02 19:01:00,44.0,40.0,-100.00,West,265,12.0,24.0,87,0.00,,,0.00,13.000000,,2013-03-03 03:01:00,
2013-03-02 19:11:00,44.0,40.0,-100.00,West,265,12.0,24.0,87,0.00,,,0.00,13.000000,,2013-03-03 03:11:00,
2013-03-02 19:32:00,43.0,42.0,-100.00,West,268,9.0,21.0,95,0.01,,,-99.99,0.000000,,2013-03-03 03:32:00,
2013-03-02 19:42:00,43.0,42.0,-100.00,West,268,9.0,21.0,95,0.01,,,-99.99,0.000000,,2013-03-03 03:42:00,
2013-03-02 19:52:00,43.0,42.0,-100.00,West,268,9.0,21.0,95,0.01,,,-99.99,0.000000,,2013-03-03 03:52:00,
2013-03-02 20:01:00,43.0,42.0,-100.00,West,268,9.0,21.0,95,0.01,,,-99.99,0.000000,,2013-03-03 04:01:00,
2013-03-02 20:11:00,43.0,42.0,-100.00,West,268,9.0,21.0,95,0.01,,,-99.99,0.000000,,2013-03-03 04:11:00,
2013-03-02 20:32:00,41.0,41.0,-100.00,NW,318,8.0,17.0,100,0.01,,,0.02,0.000000,,2013-03-03 04:32:00,
2013-03-02 20:42:00,41.0,41.0,-100.00,NW,318,8.0,17.0,100,0.01,,,0.02,0.000000,,2013-03-03 04:42:00,
2013-03-02 20:52:00,41.0,41.0,-100.00,NW,318,8.0,17.0,100,0.01,,,0.02,0.000000,,2013-03-03 04:52:00,
2013-03-02 21:01:00,41.0,41.0,-100.00,NW,318,8.0,17.0,100,0.01,,,0.02,0.000000,,2013-03-03 05:01:00,
2013-03-02 21:11:00,41.0,41.0,-100.00,NW,318,8.0,17.0,100,0.01,,,0.02,0.000000,,2013-03-03 05:11:00,
2013-03-02 21:32:00,37.0,37.0,-100.00,WNW,290,12.0,22.0,100,0.02,,,-99.99,0.000000,,2013-03-03 05:32:00,
2013-03-02 21:42:00,37.0,37.0,-100.00,WNW,290,12.0,22.0,100,0.02,,,-99.99,0.000000,,2013-03-03 05:42:00,
2013-03-02 21:52:00,37.0,37.0,-100.00,WNW,290,12.0,22.0,100,0.02,,,-99.99,0.000000,,2013-03-03 05:52:00,
2013-03-02 22:01:00,37.0,37.0,-100.00,WNW,290,12.0,22.0,100,0.02,,,-99.99,0.000000,,2013-03-03 06:01:00,
2013-03-02 22:11:00,37.0,37.0,-100.00,WNW,290,12.0,22.0,100,0.02,,,-99.99,0.000000,,2013-03-03 06:11:00,
2013-03-02 22:32:00,36.0,36.0,-100.00,West,281,10.0,25.0,100,0.01,,,0.05,0.000000,,2013-03-03 06:32:00,
2013-03-02 22:42:00,36.0,36.0,-100.00,West,281,10.0,25.0,100,0.01,,,0.05,0.000000,,2013-03-03 06:42:00,
2013-03-02 22:52:00,36.0,36.0,-100.00,West,281,10.0,25.0,100,0.01,,,0.05,0.000000,,2013-03-03 06:52:00,
2013-03-02 23:01:00,36.0,36.0,-100.00,West,281,10.0,25.0,100,0.01,,,0.05,0.000000,,2013-03-03 07:01:00,
2013-03-02 23:11:00,36.0,36.0,-100.00,West,281,10.0,25.0,100,0.01,,,0.05,0.000000,,2013-03-03 07:11:00,
2013-03-02 23:32:00,36.0,35.0,-100.00,WNW,294,7.0,15.0,98,0.00,,,0.05,0.000000,,2013-03-03 07:32:00,
2013-03-02 23:42:00,36.0,35.0,-100.00,WNW,294,7.0,15.0,98,0.00,,,0.05,0.000000,,2013-03-03 07:42:00,
2013-03-02 23:52:00,36.0,35.0,-100.00,WNW,294,7.0,15.0,98,0.00,,,0.05,0.000000,,2013-03-03 07:52:00,